Home   Weather   Viernheim   Past weeks

Flag for Germany Past Weather in Viernheim, Hesse, Germany — Yesterday and Last 2 Weeks

Now
27 °F

Fog.


Feels Like: 23 °F
Forecast: 23 / 37 °F
Wind: 3 mph from East

Location: Frankfurt-M-Flughafen Airport

Current Time: Dec 3, 2016 at 5:55:37 am

Latest Report: Dec 3, 2016 at 5:20 am


Visibility: N/A

Pressure: 30.24 "Hg

Humidity: 93%

Dew Point: 25 °F

Location of ViernheimLocation

Past Weather in Viernheim — Graph

°F

Viernheim Temperature Yesterday

Maximum temperature yesterday: 48 °F (at 12:50 pm)
Minimum temperature yesterday: 30 °F (at 11:20 pm)
Average temperature yesterday: 41 °F

High & Low Weather Summary for the Past Weeks

 TemperatureHumidityPressure
High59 °F (Nov 20, 3:20 pm)100% (Nov 22, 12:50 am)30.57 "Hg (Nov 22, 12:50 am)
Low18 °F (Nov 30, 8:20 am)47% (Nov 20, 12:50 pm)29.47 "Hg (Nov 18, 6:50 am)
Average42 °F78%30.06 "Hg
* Reported Nov 18 4:20 am — Dec 3 4:20 am, Viernheim, Weather by CustomWeather, © 2016

Note: Actual official high and low records may vary slightly from our data, if they occured in-between our weather recording intervals... More about our weather records

Advertising

Viernheim Weather History for the Previous 24 Hours

Scroll right to see more
 ConditionsComfort  
Time TempWeatherWind HumidityBarometerVisibility
4:20 am
Sat, Dec 3
27 °FFog.8 mph93%30.24 "HgN/A
3:50 am28 °FFog.6 mph86%30.24 "HgN/A
3:20 am28 °FClear.6 mph93%30.24 "Hg10 mi
2:20 am27 °FClear.8 mph93%30.24 "Hg10 mi
1:50 am28 °FFog.7 mph93%30.24 "HgN/A
1:20 am30 °FFog.8 mph93%30.24 "HgN/A
12:50 am32 °FFog.8 mph93%30.24 "HgN/A
12:20 am30 °FFog.9 mph93%30.24 "HgN/A
11:50 pm
Fri, Dec 2
32 °FFog.8 mph93%30.24 "HgN/A
11:20 pm30 °FClear.2 mph93%30.24 "Hg10 mi
10:50 pm32 °FClear.3 mph93%30.21 "Hg10 mi
10:20 pm32 °FPassing clouds.5 mph93%30.21 "HgN/A
9:50 pm34 °FPassing clouds.3 mph93%30.21 "HgN/A
9:20 pm34 °FPassing clouds.6 mph93%30.21 "HgN/A
8:50 pm36 °FFog.6 mph87%30.21 "HgN/A
8:20 pm34 °FFog.5 mph93%30.21 "HgN/A
7:50 pm34 °FFog.3 mph93%30.21 "HgN/A
7:20 pm36 °FFog.2 mph93%30.21 "HgN/A
6:50 pm39 °FPassing clouds.5 mph81%30.21 "HgN/A
6:20 pm39 °FPassing clouds.2 mph81%30.21 "HgN/A
5:50 pm43 °FPassing clouds.7 mph71%30.21 "HgN/A
5:20 pm43 °FPartly cloudy.6 mph76%30.21 "HgN/A
4:50 pm43 °FLight rain. Partly cloudy.6 mph76%30.18 "HgN/A
4:20 pm43 °FLight rain. Partly sunny.8 mph71%30.18 "HgN/A
3:50 pm43 °FScattered showers. Partly sunny.9 mph76%30.18 "HgN/A
3:20 pm43 °FSprinkles. Partly sunny.13 mph81%30.18 "HgN/A
2:50 pm46 °FSprinkles. Broken clouds.8 mph76%30.18 "HgN/A
2:20 pm46 °FSprinkles. Broken clouds.9 mph76%30.15 "HgN/A
1:50 pm48 °FScattered showers. Broken clouds.8 mph76%30.15 "HgN/A
1:20 pm48 °FScattered showers. Partly sunny.5 mph76%30.15 "HgN/A
12:50 pm48 °FPartly sunny.6 mph76%30.15 "HgN/A
12:20 pm46 °FScattered showers. Partly sunny.7 mph82%30.18 "HgN/A
11:50 am46 °FScattered showers. Broken clouds.7 mph76%30.18 "HgN/A
11:20 am46 °FBroken clouds.10 mph76%30.18 "HgN/A
10:50 am46 °FPartly sunny.10 mph76%30.18 "HgN/A
10:20 am45 °FPartly sunny.10 mph81%30.18 "HgN/A
9:50 am45 °FPartly sunny.13 mph81%30.15 "HgN/A
9:20 am45 °FPartly sunny.12 mph81%30.15 "HgN/A
8:50 am43 °FPartly sunny.12 mph81%30.15 "HgN/A
8:20 am43 °FPartly sunny.12 mph81%30.15 "HgN/A
7:50 am43 °FPassing clouds.9 mph81%30.15 "HgN/A
7:20 am43 °FPassing clouds.12 mph81%30.15 "HgN/A
6:50 am41 °FPassing clouds.9 mph87%30.15 "HgN/A
6:20 am41 °FPassing clouds.12 mph87%30.15 "HgN/A
5:50 am41 °FPassing clouds.13 mph81%30.15 "HgN/A
5:20 am41 °FPartly cloudy.10 mph81%30.15 "HgN/A
Weather by CustomWeather, © 2016

See weather overviewHow to use our weather pages